Change the Weather History Date:

Tuesday, November 12, 2013

  Actual Average Record
Temperature  
Mean Temperature 53 °F 62 °F  
Max Temperature 61 °F 73 °F 89 °F (1988)
Min Temperature 44 °F 52 °F 24 °F (1950)
Degree Days  
Heating Degree Days 12 5  
Month to date heating degree days 47 46  
Since 1 July heating degree days 67 77  
Cooling Degree Days 0 2  
Month to date cooling degree days 12 38  
Year to date cooling degree days 3413 3103  
Growing Degree Days 3 (Base 50)    
Moisture  
Dew Point 42 °F    
Average Humidity 62    
Maximum Humidity 86    
Minimum Humidity 37    
Precipitation  
Precipitation 0.00 in 0.11 in 1.75 in (1893)
Month to date precipitation 0.38 1.28  
Year to date precipitation 37.26 30.24  
Snow  
Snow 0.00 in - - ()
Month to date snowfall 0.0  
Since 1 July snowfall 0.0  
Since 1 September snowfall 0.0  
Snow Depth 0.00 in    
Sea Level Pressure  
Sea Level Pressure 30.48 in    
Wind  
Wind Speed 8 mph (North)    
Max Wind Speed 18 mph    
Max Gust Speed 30 mph    
Visibility 10 miles    
Events      
T = Trace of Precipitation, MM = Missing Value Source: NWS Daily Summary

Daily Weather History Graph

Daily Weather History Graph

Search for Another Location

Airport or City:

Trip Planner

Search our weather history database for the weather conditions in past years. The results will help you decide how hot, cold, wet, or windy it might be!

Date:

Astronomy

Nov. 12, 2013 Rise Set
Actual Time 6:54 AM CST 5:35 PM CST
Civil Twilight 6:29 AM CST 6:01 PM CST
Nautical Twilight 6:00 AM CST 6:29 PM CST
Astronomical Twilight 5:31 AM CST 6:58 PM CST
Moon 2:32 PM CST (11/12) 2:05 AM CST (11/12)
Length of Visible Light 11h 31m
Length of Day
10h 41m
Waxing Gibbous, 76% of the Moon is Illuminated
Nov 12
Waxing Gibbous
Nov 17
Full
Nov 25
Last Quarter
Dec 2
New
Dec 9
First Quarter

Hourly Weather History & Observations

Time (CST) Temp. Windchill Dew Point Humidity Pressure Visibility Wind Dir Wind Speed Gust Speed Precip Events Conditions
12:51 AM 55.9 °F - 52.0 °F 87% 30.27 in 10.0 mi Calm Calm - N/A   Clear
1:51 AM 55.9 °F - 52.0 °F 87% 30.27 in 10.0 mi Calm Calm - N/A   Clear
2:51 AM 55.0 °F - 51.1 °F 86% 30.28 in 10.0 mi Calm Calm - N/A   Clear
3:51 AM 57.9 °F - 52.0 °F 81% 30.30 in 10.0 mi Calm Calm - N/A   Mostly Cloudy
4:51 AM 57.0 °F - 51.1 °F 81% 30.32 in 10.0 mi NNW 5.8 mph - N/A   Partly Cloudy
5:51 AM 57.0 °F - 51.1 °F 81% 30.33 in 10.0 mi Calm Calm - N/A   Clear
6:51 AM 55.9 °F - 51.1 °F 84% 30.36 in 10.0 mi NNW 3.5 mph - N/A   Clear
7:51 AM 60.1 °F - 51.1 °F 72% 30.40 in 10.0 mi North 10.4 mph 17.3 mph N/A   Clear
8:29 AM 60.1 °F - 53.1 °F 78% 30.43 in 10.0 mi North 17.3 mph 27.6 mph N/A   Mostly Cloudy
8:51 AM 60.1 °F - 54.0 °F 80% 30.43 in 9.0 mi North 10.4 mph 25.3 mph N/A   Overcast
9:51 AM 55.9 °F - 50.0 °F 80% 30.49 in 9.0 mi North 12.7 mph 21.9 mph N/A   Overcast
10:51 AM 53.1 °F - 46.9 °F 80% 30.53 in 8.0 mi North 15.0 mph 24.2 mph N/A   Overcast
11:51 AM 53.1 °F - 45.0 °F 74% 30.53 in 10.0 mi NNW 8.1 mph 17.3 mph N/A   Overcast
12:06 PM 54.0 °F - 45.0 °F 72% 30.52 in 10.0 mi North 11.5 mph 20.7 mph N/A   Overcast
12:51 PM 55.9 °F - 44.1 °F 64% 30.51 in 10.0 mi North 10.4 mph 20.7 mph N/A   Overcast
1:51 PM 57.0 °F - 43.0 °F 59% 30.50 in 10.0 mi North 10.4 mph 20.7 mph N/A   Overcast
2:19 PM 55.9 °F - 41.0 °F 57% 30.50 in 10.0 mi NNW 11.5 mph 19.6 mph N/A   Overcast
2:43 PM 57.0 °F - 41.0 °F 55% 30.51 in 10.0 mi North 6.9 mph 20.7 mph N/A   Mostly Cloudy
2:51 PM 57.9 °F - 41.0 °F 53% 30.51 in 10.0 mi North 11.5 mph 19.6 mph N/A   Scattered Clouds
3:51 PM 59.0 °F - 39.9 °F 49% 30.50 in 10.0 mi North 11.5 mph 23.0 mph N/A   Clear
4:51 PM 55.9 °F - 37.9 °F 51% 30.52 in 10.0 mi North 11.5 mph 20.7 mph N/A   Partly Cloudy
5:51 PM 54.0 °F - 37.0 °F 53% 30.54 in 10.0 mi NNE 10.4 mph 19.6 mph N/A   Clear
6:51 PM 52.0 °F - 32.0 °F 47% 30.58 in 10.0 mi Variable 5.8 mph 18.4 mph N/A   Clear
7:51 PM 50.0 °F - 27.0 °F 41% 30.61 in 10.0 mi Variable 5.8 mph - N/A   Clear
8:51 PM 48.9 °F - 24.1 °F 38% 30.62 in 10.0 mi North 8.1 mph - N/A   Clear
9:51 PM 46.9 °F - 21.9 °F 37% 30.64 in 10.0 mi North 9.2 mph 18.4 mph N/A   Clear
10:51 PM 46.0 °F 41.0 °F 21.9 °F 39% 30.65 in 10.0 mi North 10.4 mph 19.6 mph N/A   Clear
11:51 PM 44.1 °F 39.0 °F 21.9 °F 42% 30.65 in 10.0 mi North 9.2 mph 18.4 mph N/A   Clear